Location: Bergen
(60.3910°N, 5.3250°E)
Time: 05:10:19
(UTC+02:00)

ISS - Pass Details

Date: 01 April 2019
Orbit: 408 x 410 km, 51.6° (Epoch: 21 April)

Event Time Altitude Azimuth Distance (km) Brightness Sun altitude
Rises 21:44:42 0° 257° (WSW) 2,340 0.9 -10.3°
Reaches altitude 10° 21:47:29 10° 232° (SW) 1,476 -0.7 -10.6°
Maximum altitude 21:49:20 14° 198° (SSW) 1,241 -1.5 -10.8°
Enters shadow 21:51:08 10° 164° (SSE) 1,461 -1.4 -11.0°
